Location: Jetmore
(38.0845°N, 99.8935°W)
Time: 10:53:36
(UTC+00:00)

Nauka - Visible Passes

Search period start: 17 September 2021 00:00
Search period end: 27 September 2021 00:00
Orbit: 419 x 423 km, 51.6° (Epoch: 16 September)

Date Brightness Start Highest point End Pass type
(mag) Time Alt. Az. Time Alt. Az. Time Alt. Az.
17 Sep ? 02:33:51 10° WSW 02:37:01 39° NW 02:37:38 35° N visible
18 Sep ? 01:46:46 10° WSW 01:50:06 66° NW 01:53:12 12° NE visible
18 Sep ? 03:25:38 10° NW 03:26:14 12° NW 03:26:14 12° NW visible
19 Sep ? 02:37:58 10° WNW 02:40:22 18° NNW 02:41:35 15° N visible
20 Sep ? 01:50:28 10° W 01:53:19 25° NNW 01:56:10 10° NNE visible
21 Sep ? 01:03:09 10° WSW 01:06:19 37° NNW 01:09:28 10° NE visible
21 Sep ? 02:42:57 10° NNW 02:43:56 11° NNW 02:44:50 10° N visible
22 Sep ? 01:54:58 10° NW 01:56:45 13° NNW 01:58:32 10° NNE visible
23 Sep ? 01:07:16 10° WNW 01:09:37 17° NNW 01:11:59 10° NNE visible
25 Sep ? 01:12:18 10° NNW 01:13:08 11° NNW 01:13:58 10° N visible
